Redding, CA

1:07 PM PST on November 18, 2019 (GMT -0800)
Redding Municipal

Weather History for KRDD - September, 2019

Change the Weather History Date:

Monday, September 23, 2019

  Actual Average Record
Temperature  
Mean Temperature 78 °F -  
Max Temperature 89 °F 89 °F 105 °F (2003)
Min Temperature 66 °F 56 °F 43 °F (1901)
Degree Days  
Heating Degree Days 0    
Cooling Degree Days 13    
Growing Degree Days 28 (Base 50)    
Moisture  
Dew Point 45 °F    
Average Humidity 39    
Maximum Humidity 59    
Minimum Humidity 18    
Precipitation  
Precipitation 0.00 in 0.02 in 3.26 in (1904)
Month to date precipitation 0.24 0.44  
Year to date precipitation 32.51 21.57  
Sea Level Pressure  
Sea Level Pressure 29.99 in    
Wind  
Wind Speed 13 mph (North)    
Max Wind Speed 26 mph    
Max Gust Speed 31 mph    
Visibility 10 miles    
Events      
T = Trace of Precipitation, MM = Missing Value Source: NWS Daily Summary

Daily Weather History Graph

Daily Weather History Graph

Search for Another Location

Airport or City:

Astronomy

Sep. 23, 2019 Rise Set
Actual Time 6:57 AM PDT 7:04 PM PDT
Civil Twilight 6:30 AM PDT 7:31 PM PDT
Nautical Twilight 5:58 AM PDT 8:03 PM PDT
Astronomical Twilight 5:26 AM PDT 8:36 PM PDT
Moon 12:44 AM PDT (9/23) 4:04 PM PDT (9/23)
Length of Visible Light 13h 01m
Length of Day
12h 07m
Waning Crescent, 32% of the Moon is Illuminated
Sep 23
Waning Crescent
Sep 28
New
Oct 5
First Quarter
Oct 13
Full
Oct 21
Last Quarter

Hourly Weather History & Observations

Time (PDT) Temp. Dew Point Humidity Pressure Visibility Wind Dir Wind Speed Gust Speed Precip Events Conditions
12:53 AM 68.0 °F 53.1 °F 59% 29.91 in 10.0 mi NW 8.1 mph - N/A   Clear
1:53 AM 69.1 °F 51.1 °F 53% 29.91 in 10.0 mi NNW 10.4 mph 19.6 mph N/A   Clear
2:53 AM 69.1 °F 48.9 °F 49% 29.91 in 10.0 mi NNW 12.7 mph - N/A   Clear
3:53 AM 68.0 °F 48.0 °F 49% 29.93 in 10.0 mi NNW 11.5 mph - N/A   Clear
4:53 AM 68.0 °F 46.9 °F 47% 29.94 in 10.0 mi North 11.5 mph - N/A   Clear
5:53 AM 66.9 °F 46.9 °F 49% 29.95 in 10.0 mi NNW 10.4 mph - N/A   Clear
6:53 AM 66.9 °F 46.0 °F 47% 29.98 in 10.0 mi NNW 10.4 mph - N/A   Clear
7:53 AM 68.0 °F 46.0 °F 45% 29.99 in 10.0 mi North 15.0 mph 21.9 mph N/A   Clear
8:53 AM 71.1 °F 45.0 °F 39% 30.02 in 10.0 mi North 18.4 mph 27.6 mph N/A   Clear
9:53 AM 73.9 °F 44.1 °F 34% 30.03 in 10.0 mi North 17.3 mph - N/A   Clear
10:53 AM 77.0 °F 44.1 °F 31% 30.03 in 10.0 mi North 20.7 mph 28.8 mph N/A   Clear
11:53 AM 80.1 °F 44.1 °F 28% 30.02 in 10.0 mi North 23.0 mph - N/A   Clear
12:53 PM 82.9 °F 43.0 °F 24% 30.01 in 10.0 mi North 16.1 mph 31.1 mph N/A   Clear
1:53 PM 84.9 °F 42.1 °F 22% 29.99 in 10.0 mi North 18.4 mph 25.3 mph N/A   Clear
2:53 PM 86.0 °F 42.1 °F 21% 29.98 in 10.0 mi North 20.7 mph 26.5 mph N/A   Clear
3:53 PM 88.0 °F 39.9 °F 18% 29.97 in 10.0 mi NNE 19.6 mph 27.6 mph N/A   Clear
4:53 PM 88.0 °F 42.1 °F 20% 29.97 in 10.0 mi North 21.9 mph 29.9 mph N/A   Clear
5:53 PM 87.1 °F 43.0 °F 21% 29.97 in 10.0 mi North 17.3 mph - N/A   Clear
6:53 PM 84.0 °F 45.0 °F 25% 29.99 in 10.0 mi North 9.2 mph - N/A   Clear
7:53 PM 82.9 °F 46.0 °F 27% 30.00 in 10.0 mi North 13.8 mph - N/A   Clear
8:53 PM 80.1 °F 48.0 °F 32% 30.02 in 10.0 mi North 9.2 mph - N/A   Clear
9:53 PM 80.1 °F 46.9 °F 31% 30.03 in 10.0 mi North 11.5 mph - N/A   Clear
10:53 PM 77.0 °F 46.0 °F 33% 30.05 in 10.0 mi Variable 4.6 mph - N/A   Clear
11:53 PM 75.9 °F 45.0 °F 33% 30.05 in 10.0 mi North 12.7 mph - N/A   Clear